Time,TemperatureF,DewpointF,PressureIn,WindDirection,WindDirectionDegrees,WindSpeedMPH,WindSpeedGustMPH,Humidity,HourlyPrecipIn,Conditions,Clouds,dailyrainin,SoftwareType,DateUTC
2014-04-17 00:07:00,41.1,31.0,30.05,North,5,3.0,-999.0,68,-99.99,,,0.00,weatherlink.com 1.10,2014-04-17 06:07:00,
2014-04-17 00:22:00,40.9,29.0,30.04,NNE,17,0.0,-999.0,64,-99.99,,,0.00,weatherlink.com 1.10,2014-04-17 06:22:00,
2014-04-17 00:37:00,40.5,29.0,30.05,NNE,17,0.0,-999.0,65,-99.99,,,0.00,weatherlink.com 1.10,2014-04-17 06:37:00,
2014-04-17 00:52:00,40.1,29.0,30.05,NNE,17,0.0,-999.0,66,-99.99,,,0.00,weatherlink.com 1.10,2014-04-17 06:52:00,
2014-04-17 01:07:00,39.8,29.0,30.05,NNE,17,0.0,-999.0,66,-99.99,,,0.00,weatherlink.com 1.10,2014-04-17 07:07:00,
2014-04-17 01:22:00,39.5,29.0,30.05,NNE,17,0.0,-999.0,67,-99.99,,,0.00,weatherlink.com 1.10,2014-04-17 07:22:00,
2014-04-17 01:37:00,40.0,29.0,30.04,NNE,17,0.0,-999.0,66,-99.99,,,0.00,weatherlink.com 1.10,2014-04-17 07:37:00,
2014-04-17 01:52:00,39.2,29.0,30.04,NNE,17,0.0,-999.0,67,-99.99,,,0.00,weatherlink.com 1.10,2014-04-17 07:52:00,
2014-04-17 02:07:00,40.0,29.0,30.04,NNE,17,0.0,-999.0,65,-99.99,,,0.00,weatherlink.com 1.10,2014-04-17 08:07:00,
2014-04-17 02:22:00,39.0,28.0,30.03,NNE,17,0.0,-999.0,66,-99.99,,,0.00,weatherlink.com 1.10,2014-04-17 08:22:00,
2014-04-17 02:37:00,38.8,28.0,30.04,NNE,17,0.0,-999.0,66,-99.99,,,0.00,weatherlink.com 1.10,2014-04-17 08:37:00,
2014-04-17 02:52:00,38.0,28.0,30.04,NNE,17,0.0,-999.0,68,-99.99,,,0.00,weatherlink.com 1.10,2014-04-17 08:52:00,
2014-04-17 03:07:00,37.0,28.0,30.04,NNE,17,0.0,-999.0,70,-99.99,,,0.00,weatherlink.com 1.10,2014-04-17 09:07:00,
2014-04-17 03:22:00,34.6,27.0,30.03,WNW,301,0.0,-999.0,75,-99.99,,,0.00,weatherlink.com 1.10,2014-04-17 09:22:00,
2014-04-17 03:37:00,34.2,28.0,30.03,WNW,292,0.0,-999.0,77,-99.99,,,0.00,weatherlink.com 1.10,2014-04-17 09:37:00,
2014-04-17 03:52:00,34.1,28.0,30.03,WNW,291,0.0,-999.0,77,-99.99,,,0.00,weatherlink.com 1.10,2014-04-17 09:52:00,
2014-04-17 04:07:00,34.5,28.0,30.04,WNW,289,1.0,-999.0,76,-99.99,,,0.00,weatherlink.com 1.10,2014-04-17 10:07:00,
2014-04-17 04:22:00,35.5,28.0,30.04,WNW,289,0.0,-999.0,75,-99.99,,,0.00,weatherlink.com 1.10,2014-04-17 10:22:00,
2014-04-17 04:37:00,36.2,28.0,30.05,WNW,290,0.0,-999.0,72,-99.99,,,0.00,weatherlink.com 1.10,2014-04-17 10:37:00,
2014-04-17 04:52:00,36.6,28.0,30.05,WNW,292,0.0,-999.0,71,-99.99,,,0.00,weatherlink.com 1.10,2014-04-17 10:52:00,
2014-04-17 05:07:00,35.8,27.0,30.05,WNW,292,0.0,-999.0,71,-99.99,,,0.00,weatherlink.com 1.10,2014-04-17 11:07:00,
2014-04-17 05:22:00,34.7,28.0,30.04,WNW,292,4.0,-999.0,77,-99.99,,,0.00,weatherlink.com 1.10,2014-04-17 11:22:00,
2014-04-17 05:37:00,33.7,28.0,30.05,NW,322,5.0,-999.0,81,-99.99,,,0.00,weatherlink.com 1.10,2014-04-17 11:37:00,
2014-04-17 05:52:00,33.3,28.0,30.05,NNW,334,4.0,-999.0,82,-99.99,,,0.00,weatherlink.com 1.10,2014-04-17 11:52:00,
2014-04-17 06:07:00,34.7,29.0,30.05,NNW,334,5.0,-999.0,79,-99.99,,,0.00,weatherlink.com 1.10,2014-04-17 12:07:00,
2014-04-17 06:22:00,35.3,28.0,30.05,NNW,334,0.0,-999.0,75,-99.99,,,0.00,weatherlink.com 1.10,2014-04-17 12:22:00,
2014-04-17 06:37:00,34.7,27.0,30.06,NNW,334,0.0,-999.0,74,-99.99,,,0.00,weatherlink.com 1.10,2014-04-17 12:37:00,
2014-04-17 06:52:00,34.7,28.0,30.07,NNW,334,0.0,-999.0,75,-99.99,,,0.00,weatherlink.com 1.10,2014-04-17 12:52:00,
2014-04-17 07:07:00,34.8,28.0,30.08,NNW,334,0.0,-999.0,77,-99.99,,,0.00,weatherlink.com 1.10,2014-04-17 13:07:00,
2014-04-17 07:22:00,35.5,30.0,30.08,NNW,334,0.0,-999.0,79,-99.99,,,0.00,weatherlink.com 1.10,2014-04-17 13:22:00,
2014-04-17 07:37:00,36.8,31.0,30.08,NNW,334,0.0,-999.0,78,-99.99,,,0.00,weatherlink.com 1.10,2014-04-17 13:37:00,
2014-04-17 07:52:00,37.6,30.0,30.09,NNW,334,0.0,-999.0,75,-99.99,,,0.00,weatherlink.com 1.10,2014-04-17 13:52:00,
2014-04-17 08:07:00,38.1,31.0,30.09,NNW,334,0.0,-999.0,74,-99.99,,,0.00,weatherlink.com 1.10,2014-04-17 14:07:00,